Total_Precipitation_Accumulation
0.00 0.00 0.00 0.00 0.00 0.00 0.00 0.00 0.00 0.00 0.00 0.00 0.00 0.00 0.00 0.00 0.00 0.00 0.00 0.00 0.00 0.00 0.00 0.00 0.00 0.00 0.00 0.01 0.01 0.03 0.04 0.01 0.04 0.06 0.08 0.07 0.08 0.21 0.15 0.25 0.39 0.38
0.00 0.00 0.01 0.00 0.00 0.00 0.00 0.00 0.00 0.00 0.00 0.00 0.00 0.00 0.00 0.00 0.00 0.00 0.00 0.00 0.00 0.00 0.00 0.00 0.00 0.00 0.00 0.01 0.01 0.01 0.01 0.07 0.06 0.02 0.06 0.09 0.13 0.11 0.18 0.21 0.22 0.29
0.00 0.00 0.00 0.00 0.00 0.00 0.00 0.00 0.00 0.00 0.00 0.00 0.00 0.00 0.00 0.00 0.01 0.01 0.01 0.01 0.01 0.01 0.01 0.00 0.00 0.00 0.00 0.00 0.01 0.01 0.01 0.01 0.05 0.05 0.09 0.06 0.16 0.11 0.11 0.15 0.15 0.13
0.00 0.01 0.00 0.00 0.00 0.00 0.00 0.00 0.00 0.00 0.00 0.00 0.00 0.00 0.00 0.00 0.00 0.00 0.00 0.01 0.01 0.01 0.00 0.01 0.00 0.00 0.00 0.00 0.00 0.01 0.02 0.01 0.01 0.03 0.10 0.09 0.04 0.06 0.10 0.09 0.11 0.15
0.04 0.00 0.04 0.00 0.00 0.00 0.00 0.00 0.00 0.00 0.00 0.00 0.00 0.00 0.01 0.00 0.00 0.01 0.01 0.01 0.01 0.01 0.00 0.00 0.00 0.00 0.00 0.00 0.01 0.01 0.01 0.01 0.01 0.01 0.02 0.08 0.14 0.06 0.04 0.10 0.13 0.10
0.18 0.27 0.02 0.01 0.01 0.00 0.00 0.00 0.00 0.00 0.00 0.00 0.00 0.00 0.00 0.00 0.01 0.01 0.00 0.01 0.00 0.00 0.01 0.01 0.00 0.00 0.00 0.00 0.00 0.01 0.01 0.01 0.02 0.01 0.01 0.02 0.09 0.16 0.12 0.06 0.11 0.09
0.08 0.10 0.07 0.01 0.01 0.00 0.00 0.01 0.00 0.00 0.01 0.00 0.00 0.00 0.00 0.00 0.00 0.00 0.00 0.00 0.00 0.00 0.00 0.00 0.00 0.00 0.00 0.00 0.01 0.01 0.01 0.01 0.01 0.01 0.01 0.01 0.01 0.07 0.17 0.11 0.08 0.05
0.24 0.23 0.16 0.15 0.09 0.00 0.01 0.00 0.00 0.00 0.00 0.00 0.00 0.00 0.00 0.00 0.00 0.00 0.00 0.00 0.00 0.00 0.00 0.00 0.00 0.00 0.00 0.00 0.00 0.01 0.01 0.01 0.01 0.01 0.00 0.01 0.01 0.02 0.03 0.13 0.11 0.08
0.48 0.57 0.22 0.14 0.09 0.01 0.01 0.01 0.02 0.01 0.02 0.02 0.01 0.01 0.00 0.00 0.00 0.00 0.00 0.00 0.00 0.00 0.00 0.00 0.01 0.01 0.01 0.01 0.01 0.01 0.01 0.01 0.00 0.00 0.01 0.01 0.01 0.01 0.01 0.04 0.12 0.12
0.65 0.38 0.37 0.44 0.34 0.30 0.14 0.11 0.07 0.12 0.14 0.05 0.01 0.01 0.01 0.04 0.01 0.02 0.00 0.00 0.00 0.00 0.01 0.00 0.00 0.00 0.01 0.01 0.01 0.01 0.01 0.01 0.01 0.01 0.00 0.01 0.01 0.01 0.02 0.01 0.02 0.06
0.53 0.61 0.45 0.32 0.38 0.46 0.44 0.29 0.23 0.28 0.40 0.34 0.31 0.25 0.15 0.13 0.10 0.04 0.02 0.02 0.01 0.01 0.01 0.01 0.01 0.01 0.02 0.01 0.02 0.02 0.03 0.03 0.03 0.07 0.07 0.02 0.05 0.02 0.02 0.03 0.02 0.03
0.28 0.45 0.90 0.87 0.50 0.36 0.22 0.12 0.14 0.21 0.25 0.33 0.36 0.40 0.46 0.35 0.25 0.21 0.07 0.05 0.04 0.09 0.03 0.05 0.07 0.07 0.02 0.05 0.08 0.06 0.10 0.12 0.10 0.05 0.08 0.13 0.22 0.09 0.09 0.11 0.09 0.04
0.29 0.52 0.48 0.32 0.23 0.29 0.15 0.23 0.15 0.11 0.09 0.45 0.65 0.60 0.46 0.45 0.47 0.16 0.17 0.29 0.58 0.38 0.14 0.14 0.14 0.13 0.19 0.39 0.13 0.11 0.06 0.20 0.20 0.16 0.25 0.30 0.36 0.19 0.24 0.25 0.24 0.28
0.49 0.75 0.56 0.75 0.61 0.91 0.57 0.34 0.42 0.65 0.74 0.94 0.84 0.49 0.49 0.46 0.15 0.16 0.57 0.65 0.62 0.21 0.20 0.09 0.26 0.15 0.15 0.39 0.24 0.26 0.22 0.31 0.51 0.67 0.86 0.29 0.71 0.43 0.39 0.33 0.41 0.28
0.25 0.49 0.59 0.31 0.80 0.74 0.51 0.98 1.16 0.78 0.50 0.48 0.40 0.33 0.21 0.51 0.58 0.73 0.67 0.25 0.16 0.16 0.15 0.29 0.26 0.81 0.98 0.47 0.69 0.33 0.15 0.70 0.43 0.27 0.29 0.26 0.33 0.25 0.18 0.14 0.41 0.36
0.57 0.56 0.95 0.93 0.67 0.70 0.58 1.25 1.09 1.30 1.11 0.41 0.47 0.31 0.15 0.18 0.60 1.02 0.71 0.80 0.20 0.46 0.62 0.51 0.46 0.60 0.21 0.05 0.05 0.07 0.42 0.52 0.42 0.35 0.28 0.25 0.37 0.30 0.29 0.32 0.35 0.14
1.05 1.15 0.74 0.89 0.64 1.09 0.68 1.04 0.82 0.49 0.51 0.42 0.31 0.19 0.49 0.43 0.46 0.58 0.82 0.81 0.50 0.53 0.98 0.75 0.56 0.32 0.42 0.33 0.10 0.03 0.06 0.34 0.29 0.29 0.28 0.24 0.13 0.11 0.23 0.17 0.13 0.10
0.69 0.83 0.74 0.63 0.73 0.57 0.66 0.43 0.37 0.44 0.41 0.35 0.22 0.32 0.18 0.18 0.27 0.27 0.35 0.56 0.67 0.54 0.54 0.76 0.25 0.07 0.03 0.10 0.22 0.03 0.15 0.31 0.18 0.22 0.09 0.08 0.04 0.07 0.03 0.04 0.05 0.21
0.71 0.59 0.52 0.61 0.32 0.48 0.73 1.13 0.77 0.37 0.33 0.20 0.13 0.13 0.13 0.18 0.12 0.10 0.20 0.21 0.27 0.53 0.65 0.23 0.03 0.01 0.01 0.01 0.01 0.02 0.03 0.04 0.08 0.20 0.20 0.31 0.04 0.06 0.01 0.05 0.02 0.02
0.45 0.57 0.43 0.37 0.50 0.54 0.42 0.37 0.24 0.19 0.15 0.13 0.11 0.14 0.12 0.09 0.17 0.33 0.68 0.42 0.47 0.68 0.14 0.05 0.02 0.02 0.00 0.00 0.01 0.01 0.03 0.03 0.05 0.04 0.04 0.05 0.05 0.13 0.04 0.02 0.01 0.00
0.12 0.19 0.24 0.45 0.58 0.54 0.51 0.24 0.15 0.22 0.17 0.16 0.11 0.20 0.14 0.33 0.20 0.05 0.07 0.07 0.05 0.11 0.24 0.07 0.04 0.10 0.04 0.05 0.04 0.01 0.01 0.01 0.05 0.10 0.07 0.08 0.04 0.03 0.15 0.02 0.04 0.02
0.36 0.31 0.11 0.28 0.29 0.21 0.28 0.32 0.23 0.15 0.28 0.20 0.35 0.14 0.20 0.25 0.26 0.15 0.15 0.17 0.10 0.12 0.08 0.08 0.05 0.02 0.02 0.00 0.01 0.01 0.01 0.02 0.03 0.06 0.06 0.05 0.05 0.18 0.03 0.05 0.02 0.05
0.09 0.25 0.28 0.12 0.09 0.06 0.05 0.04 0.03 0.02 0.03 0.05 0.05 0.03 0.02 0.02 0.03 0.03 0.03 0.04 0.02 0.01 0.03 0.02 0.02 0.01 0.02 0.01 0.01 0.01 0.01 0.02 0.04 0.07 0.06 0.06 0.02 0.02 0.03 0.02 0.04 0.01
0.22 0.14 0.23 0.12 0.11 0.06 0.03 0.04 0.03 0.05 0.04 0.02 0.03 0.02 0.03 0.04 0.05 0.03 0.02 0.02 0.03 0.03 0.02 0.02 0.02 0.03 0.02 0.01 0.00 0.00 0.01 0.04 0.07 0.07 0.07 0.07 0.05 0.03 0.02 0.02 0.03 0.01
0.06 0.17 0.19 0.55 0.40 0.21 0.09 0.08 0.04 0.07 0.06 0.03 0.04 0.05 0.06 0.07 0.07 0.10 0.02 0.06 0.02 0.02 0.02 0.04 0.04 0.04 0.02 0.01 0.01 0.00 0.06 0.08 0.06 0.10 0.10 0.06 0.05 0.05 0.08 0.09 0.03 0.05
0.16 0.15 0.20 0.13 0.22 0.09 0.22 0.39 0.44 0.26 0.21 0.19 0.12 0.12 0.09 0.06 0.05 0.03 0.02 0.01 0.01 0.02 0.03 0.04 0.04 0.04 0.03 0.02 0.01 0.02 0.07 0.06 0.04 0.10 0.09 0.07 0.07 0.05 0.08 0.09 0.07 0.07